Regional Weather Roundup
Issued by NWS Kansas City/Pleasant Hill, MO

Home | Current Version | Previous Version | Graphics & Text | Print | Product List | Glossary Off
Versions: 1 2 3 4 5 6 7 8 9 10 11 12 13 14 15 16 17 18 19 20 21 22 23 24 25 26 27 28 29 30 31 32 33 34 35 36 37 38 39 40 41 42 43 44 45 46 47 48 49 50

000
ASUS43 KEAX 030210
RWREAX

WEATHER ROUNDUP FOR EASTERN KANSAS AND NORTHWEST MISSOURI
NATIONAL WEATHER SERVICE KANSAS CITY/PLEASANT HILL MO
900 PM CDT TUE SEP 02 2014

KSZ040-057-103>105-MOZ028-029-037-043-030300-
...KANSAS CITY METROPOLITAN AREA...

CITY           SKY/WX    TMP DP  RH WIND       PRES   REMARKS
K.C. INTL      CLEAR     74  67  78 CALM      29.96R
K.C. DOWNTOWN  CLEAR     78  67  68 CALM      29.95R
LEES SUMMIT    CLEAR     75  69  81 SE3       29.97R
OLATHE - IXD   CLEAR     73  67  81 SE5       29.98R
OLATHE - OJC   CLEAR     73  68  84 CALM      29.97R
LAWRENCE       CLEAR     70  67  90 E6        29.96R

$$

MOZ001>008-011>017-020>025-030>033-038>040-044>046-053-054-030300-
...NORTHERN AND CENTRAL MISSOURI...

CITY           SKY/WX    TMP DP  RH WIND       PRES   REMARKS
ST. JOSEPH     CLEAR     72  67  84 SE5       29.96R
MOSBY          CLEAR     72  70  94 CALM      29.96R
WHITEMAN AFB   CLEAR     71  69  96 SE3       29.97R
CLINTON        CLEAR     72  72 100 CALM      29.98R
SEDALIA        CLEAR     72  68  87 CALM      29.98R
WARSAW         NOT AVBL
MARSHALL       CLEAR     75  72  88 S3        29.99R
CHILLICOTHE      N/A     70  68  93 CALM      29.98R
MOBERLY        CLEAR     70  64  83 CALM      29.99R
KIRKSVILLE     CLEAR     67  65  93 CALM      29.98R

$$

MOZ041-047>049-056>058-063>065-088>090-097-030300-
...EASTERN AND SOUTHERN MISSOURI...

CITY           SKY/WX    TMP DP  RH WIND       PRES   REMARKS
ST. LOUIS INTL PTCLDY    76  68  76 CALM      29.99R
SPIRIT OF STL  CLEAR     71  69  93 CALM      29.98R
COLUMBIA       CLEAR     74  69  85 SW3       29.99R
JEFFERSON CITY CLEAR     74  69  85 E3        29.98R
MEXICO         CLEAR    N/A N/A N/A S3        29.99R
HANNIBAL       CLEAR     70  66  88 CALM      29.98R
ROLLA          FOG       67  66  97 CALM      30.00R VSB 1/2
LEBANON        CLEAR     72  66  83 NE5       30.02R
OSAGE BEACH    CLEAR     70  66  88 CALM      30.00R
SPRINGFIELD    CLEAR     71  66  84 S8        30.02R
BRANSON        CLEAR     68  66  94 CALM      30.04R
NEVADA         CLEAR     70  66  88 SE5       30.01R
JOPLIN         MOCLDY    74  68  81 SE5       30.00R
WEST PLAINS    CLEAR     68  32  26 CALM      30.03R

$$

IAZ060-094-KSZ022-034>040-054-083-096-NEZ052-066-093-030300-
...KANSAS...SOUTHEAST NEBRASKA AND IOWA...

CITY           SKY/WX    TMP DP  RH WIND       PRES   REMARKS
TOPEKA         CLEAR     74  69  85 E3        29.95R
MANHATTAN      CLEAR     77  68  73 E3        29.92R
EMPORIA        CLEAR     75  69  81 SE7       29.95R
CHANUTE        CLEAR     74  68  81 SE6       29.97R
WICHITA        MOCLDY    79  69  71 SE9       29.92R
OMAHA          CLEAR     71  61  70 SE5       29.94R
LINCOLN        CLEAR     74  58  57 E7        29.95R
FALLS CITY     CLEAR     72  64  76 E3        29.94R
LAMONI         CLEAR     71  60  68 CALM      29.98R
DES MOINES     CLEAR     73  60  63 CALM      29.95R

$$




USA.gov is the U.S. government's official web portal to all federal, state and local government web resources and services.